Location: *
(43.0167°S, 179.9000°E)
Time: 20:01:15
(UTC+00:00)

SL-16 R/B - Pass Details

Date: 12 August 2024
Orbit: 986 x 1006 km, 99.7° (Epoch: 20 September)

Event Time Altitude Azimuth Distance (km) Brightness Sun altitude
Rises 15:25:54 0° 161° (SSE) 3,754 6.0 -38.8°
Reaches altitude 10° 15:28:28 10° 157° (SSE) 2,795 5.3 -38.3°
Enters shadow 15:32:54 43° 128° (SE) 1,387 3.5 -37.6°
